Location: Ferchesar
(52.6477°N, 12.4298°E)
Time: 09:34:31
(UTC+01:00)

Vanguard 3 - Pass Details

Date: 13 December 2021
Orbit: 508 x 3260 km, 33.3° (Epoch: 24 January)

Event Time Altitude Azimuth Distance (km) Brightness Sun altitude
Rises 23:28:00 0° 196° (SSW) 5,549 - -59.7°
Reaches altitude 10° 23:32:37 10° 182° (S) 4,982 - -59.9°
Maximum altitude 23:42:45 22° 140° (SE) 4,796 - -60.3°
Drops below altitude 10° 23:55:01 10° 100° (E) 6,167 - -60.5°
Exits shadow 23:55:14 10° 99° (E) 6,199 11.5 -60.5°
Sets 00:01:41 0° 88° (E) 7,224 12.0 -60.6°
